Regional Weather Roundup
Issued by NWS

Home | Current Version | Previous Version | Text Only | Print | Product List | Glossary On
Versions: 1 2 3 4 5 6 7 8 9 10 11 12 13 14 15 16 17 18 19 20 21 22 23 24 25 26 27 28 29 30 31 32 33 34 35 36 37 38 39 40 41 42 43 44 45 46 47 48 49 50
000
ASUS44 KFWD 220303
RWRTX
NORTH TEXAS HOURLY WEATHER ROUNDUP
NATIONAL WEATHER SERVICE FORT WORTH TX
1000 PM CDT MON AUG 21 2017

NOTE: "FAIR" INDICATES FEW OR NO CLOUDS BELOW 12,000 FEET WITH NO
SIGNIFICANT WEATHER AND/OR OBSTRUCTIONS TO VISIBILITY.

TXZ118-119-220400-
DALLAS/FORT WORTH METROPLEX

CITY           SKY/WX    TMP DP  RH WIND       PRES   REMARKS
DFW AIRPORT    PTCLDY    87  71  58 SE13      30.03R HX  93
DALLAS LOVE    PTCLDY    87  70  56 SE15      30.04R HX  92
FTW MEACHAM    CLEAR     85  69  58 SE8       30.04R
DAL-EXECUTIVE  CLEAR     86  71  60 SE8       30.05R HX  91
FTW-ALLIANCE   CLEAR     85  69  58 SE8       30.05R
FTW-NAS-JRB    CLEAR     87  66  49 S5        30.05R
FTW-SPINKS     CLEAR     81  67  63 SE5       30.07R
ARLINGTON      CLEAR     85  72  65 SE10      30.05R HX  91
GRAND PRAIRIE  CLEAR     86  67  53 E8        30.06R
MESQUITE         N/A     82  72  71 SW5       30.06R
LANCASTER      CLEAR     84  70  62 SE6       30.06R
$$

TXZ091>094-102>105-117-120-121-131>134-220400-
NORTH CENTRAL TEXAS

CITY           SKY/WX    TMP DP  RH WIND       PRES   REMARKS
SHRMAN/DENISON CLEAR     83  72  69 SE12      30.07R
GAINESVILLE    CLEAR     79  71  76 SE6       30.07R
BOWIE          CLEAR     80  69  71 SE3       30.05R
BRIDGEPORT     CLEAR     82  68  63 S6        30.07R
DECATUR        CLEAR     84  68  59 S6          N/A
DENTON         CLEAR     82  72  71 SE6       30.05R
MCKINNEY       CLEAR     82  75  79 SE7       30.06R
BONHAM         CLEAR     81  73  78 SE7       30.07R
ROCKWALL       CLEAR     82  73  75 SE8       30.06R
TERRELL        CLEAR     83  72  69 SE7       30.07R
WAXAHACHIE     MOCLDY    83  72  68 E5        30.08R
CLEBURNE       CLEAR     84  68  58 SE6       30.08R
GRANBURY       CLEAR     84  67  56 SE3       30.06R
$$

TXZ083>090-098>101-113>116-127>130-139>142-154-155-220400-
WESTERN NORTH TEXAS

CITY           SKY/WX    TMP DP  RH WIND       PRES   REMARKS
WICHITA FALLS  CLEAR     81  68  64 SE10      30.02R
WF-KICKAPOO    CLEAR     83  69  61 SE8       30.05R
VERNON         PTCLDY    82  62  50 SE7       30.03S
ABILENE        CLEAR     79  65  62 SE7       30.07R
ABILENE-DYESS  CLEAR     79  65  63 SE6       30.06R
BRECKENRIDGE   CLEAR     84  65  52 SE8       30.05R
CISCO          CLEAR     81  66  61 SE8       30.08R
EASTLAND       CLEAR     83  67  58 SE7       30.07R
RANGER         CLEAR     81  67  61 SE7       30.07R
MINERAL WELLS  CLEAR     80  67  64 SE7       30.04R
STEPHENVILLE   CLEAR     81  66  61 CALM      30.10R
COMANCHE       CLEAR     81  65  59 SE7       30.08R
BROWNWOOD      CLEAR     81  63  54 SE6       30.07R
COLEMAN        CLEAR     84  62  46 SE8       30.08R
$$

TXZ143>147-156>162-174-175-220400-
CENTRAL TEXAS

CITY           SKY/WX    TMP DP  RH WIND       PRES   REMARKS
WACO           CLEAR     86  68  54 SE7       30.04R
WACO-TSTC      CLEAR     84  68  58 E3        30.04R
WACO-MCGREGOR  CLEAR     84  66  54 S5        30.05R
HILLSBORO      PTCLDY    86  69  56 E7        30.06R HX  90
MEXIA          PTCLDY    84  69  60 E12       30.06R
HEARNE         CLEAR     85  70  60 E3        30.06R HX  90
CAMERON        CLEAR     86  70  59 SE8       30.05R HX  90
TEMPLE         CLEAR     84  68  58 SE6       30.06R
KILLEEN        CLEAR     84  66  53 SE8       30.06R
KILLEEN-SKYLRK CLEAR     86  69  56 SE7       30.06R HX  90
FORT HOOD      CLEAR     85  67  54 SE5       30.03R
HAMILTON       CLEAR     80  65  59 SE6       30.09R
LAMPASAS       CLEAR     82  67  61 CALM      30.07R
$$

TXZ095>097-106>112-122>126-135>138-148>153-164>167-220400-
EAST TEXAS

CITY           SKY/WX    TMP DP  RH WIND       PRES   REMARKS
PARIS          CLEAR     79  75  87 SE6       30.08R
SULPHUR SPRNGS CLEAR     82  74  76 SE5       30.09R
MOUNT PLEASANT CLEAR     79  74  83 SE6       30.09R
GILMER         CLEAR     79  74  84 CALM      30.08R
MINEOLA        CLEAR     81  75  83 E7        30.07R
TYLER          CLEAR     81  76  84 SE7       30.08R
LONGVIEW       CLEAR     80  74  81 SE3       30.08R
MARSHALL         N/A     76  73  90 CALM      30.11R
ATHENS         CLEAR     81  72  74 CALM      30.06R
PALESTINE      CLEAR     84  74  72 E5        30.08R HX  90
JACKSONVILLE   CLEAR     82  74  76 CALM      30.11R
HENDERSON      CLEAR     77  73  86 CALM      30.10R
CENTER         CLEAR     81  79  95 CALM      30.10R HX  91
NACOGDOCHES    CLEAR     79  74  84 E5        30.09R
LUFKIN         CLEAR     80  73  79 E3        30.08R
$$

SUPPLEMENTAL OBSERVATIONS (NWS FORT WORTH AREA)

CITY           SKY/WX    TMP DP  RH WIND       PRES   REMARKS
$$

SUPPLEMENTAL OBSERVATIONS (NWS NORMAN AREA)

CITY           SKY/WX    TMP DP  RH WIND       PRES   REMARKS
GOODLETT         N/A     76  67  73 W9        30.05S
ODELL            N/A     83  65  54 SE8       30.04R
CROWELL          N/A     85  65  52 W10       30.05R
KNOX CITY        N/A     83  60  44 SE7       30.04R
SEYMOUR          N/A     83  65  54 SE9       30.04R
$$

SUPPLEMENTAL OBSERVATIONS (NWS SAN ANGELO AREA)

CITY           SKY/WX    TMP DP  RH WIND       PRES   REMARKS
WEINERT          N/A     82  62  51 SE7       30.05R
HASKELL          N/A     85  56  37 SE6       30.05R
THROCKMORTON     N/A     82  67  61 SE8       30.06R
STAMFORD         N/A     82  62  51 S6        30.06R
CLYDE            N/A     80  65  60 SE6       30.10R
$$

SUPPLEMENTAL OBSERVATIONS (NWS SHREVEPORT AREA)

CITY           SKY/WX    TMP DP  RH WIND       PRES   REMARKS
$$

SUPPLEMENTAL OBSERVATIONS ARE A COLLECTION OF AUTOMATED INSTRUMENTS
THAT ARE MAINTAINED BY A VARIETY OF FEDERAL AND STATE AGENCIES.
CERTAIN ELEMENTS...SUCH AS HUMIDITY VALUES AND SUSTAINED WIND
SPEEDS...MAY BE APPROXIMATED.





USA.gov is the U.S. government's official web portal to all federal, state and local government web resources and services.